TimeEEST,TemperatureF,Dew PointF,Humidity,Sea Level PressureIn,VisibilityMPH,Wind Direction,Wind SpeedMPH,Gust SpeedMPH,PrecipitationIn,Events,Conditions,WindDirDegrees,DateUTC
12:20 AM,77.0,64.4,65,29.98,-9999.0,NE,12.7,-,N/A,,Clear,40,2012-07-17 21:20:00
12:50 AM,77.0,62.6,61,29.98,-9999.0,NE,13.8,-,N/A,,Clear,50,2012-07-17 21:50:00
1:20 AM,77.0,62.6,61,29.98,-9999.0,NE,12.7,-,N/A,,Clear,50,2012-07-17 22:20:00
1:50 AM,77.0,62.6,61,29.98,-9999.0,NE,11.5,-,N/A,,Clear,50,2012-07-17 22:50:00
2:20 AM,77.0,62.6,61,29.98,-9999.0,NE,12.7,-,N/A,,Clear,50,2012-07-17 23:20:00
2:50 AM,77.0,62.6,61,29.98,-9999.0,NE,12.7,-,N/A,,Clear,50,2012-07-17 23:50:00
3:00 AM,76,62,52,29.97,6,NE,12.7,,,,,50,2012-07-18 00:00:00
3:20 AM,77.0,62.6,61,29.95,-9999.0,NE,11.5,-,N/A,,Clear,50,2012-07-18 00:20:00
3:50 AM,77.0,62.6,61,29.95,-9999.0,NE,13.8,-,N/A,,Clear,50,2012-07-18 00:50:00
4:20 AM,75.2,62.6,65,29.95,-9999.0,ENE,11.5,-,N/A,,Clear,60,2012-07-18 01:20:00
4:50 AM,75.2,60.8,61,29.95,-9999.0,NE,11.5,-,N/A,,Clear,50,2012-07-18 01:50:00
5:50 AM,75.2,62.6,65,29.95,-9999.0,NE,10.4,-,N/A,,Clear,40,2012-07-18 02:50:00
6:20 AM,75.2,62.6,65,29.95,-9999.0,NE,11.5,-,N/A,,Clear,50,2012-07-18 03:20:00
6:50 AM,77.0,62.6,61,29.95,-9999.0,NE,10.4,-,N/A,,Clear,40,2012-07-18 03:50:00
7:20 AM,77.0,62.6,61,29.95,-9999.0,NE,9.2,-,N/A,,Clear,40,2012-07-18 04:20:00
7:50 AM,78.8,62.6,57,29.98,-9999.0,NE,15.0,-,N/A,,Clear,40,2012-07-18 04:50:00
8:20 AM,78.8,60.8,54,29.98,6.2,NE,16.1,-,N/A,,Partly Cloudy,50,2012-07-18 05:20:00
8:50 AM,80.6,60.8,51,29.98,6.2,NNE,17.3,-,N/A,,Partly Cloudy,30,2012-07-18 05:50:00
9:00 AM,80,60,41,29.97,6,NNE,17.3,,,,Scattered Clouds,30,2012-07-18 06:00:00
9:20 AM,80.6,60.8,51,29.98,6.2,NE,15.0,-,N/A,,Partly Cloudy,40,2012-07-18 06:20:00
9:50 AM,80.6,59.0,48,29.98,6.2,NE,17.3,-,N/A,,Partly Cloudy,40,2012-07-18 06:50:00
10:20 AM,82.4,59.0,45,29.98,6.2,NE,16.1,-,N/A,,Partly Cloudy,50,2012-07-18 07:20:00
10:50 AM,82.4,57.2,42,29.98,6.2,NE,18.4,-,N/A,,Partly Cloudy,50,2012-07-18 07:50:00
11:20 AM,82.4,53.6,37,29.98,6.2,NE,19.6,-,N/A,,Partly Cloudy,40,2012-07-18 08:20:00
11:50 AM,84.2,53.6,35,29.98,6.2,NE,17.3,-,N/A,,Scattered Clouds,50,2012-07-18 08:50:00
12:20 PM,84.2,55.4,37,29.98,6.2,NE,16.1,-,N/A,,Scattered Clouds,40,2012-07-18 09:20:00
12:50 PM,84.2,55.4,37,29.98,6.2,NE,17.3,-,N/A,,Scattered Clouds,40,2012-07-18 09:50:00
1:20 PM,84.2,55.4,37,29.98,-9999.0,NNE,16.1,-,N/A,,Clear,30,2012-07-18 10:20:00
1:50 PM,84.2,53.6,35,29.98,6.2,NE,18.4,-,N/A,,Scattered Clouds,50,2012-07-18 10:50:00
2:20 PM,84.2,55.4,37,29.98,6.2,NE,15.0,26.5,N/A,,Scattered Clouds,50,2012-07-18 11:20:00
2:50 PM,84.2,51.8,33,29.98,6.2,NE,18.4,-,N/A,,Scattered Clouds,40,2012-07-18 11:50:00
3:00 PM,84,52,23,29.97,6,NE,18.4,,,,Partly Cloudy,40,2012-07-18 12:00:00
3:20 PM,84.2,57.2,40,29.98,6.2,NNE,20.7,-,N/A,,Scattered Clouds,30,2012-07-18 12:20:00
3:50 PM,84.2,53.6,35,29.95,6.2,NNE,19.6,32.2,N/A,,Partly Cloudy,30,2012-07-18 12:50:00
4:20 PM,82.4,57.2,42,29.95,6.2,NNE,19.6,-,N/A,,Partly Cloudy,30,2012-07-18 13:20:00
4:50 PM,82.4,55.4,39,29.95,6.2,NNE,18.4,-,N/A,,Partly Cloudy,30,2012-07-18 13:50:00
5:20 PM,82.4,57.2,42,29.95,6.2,NNE,18.4,-,N/A,,Partly Cloudy,20,2012-07-18 14:20:00
5:50 PM,82.4,57.2,42,29.95,6.2,NNE,17.3,28.8,N/A,,Partly Cloudy,30,2012-07-18 14:50:00
6:20 PM,82.4,57.2,42,29.95,6.2,ENE,16.1,-,N/A,,Partly Cloudy,60,2012-07-18 15:20:00
6:50 PM,80.6,55.4,42,29.95,6.2,NE,17.3,-,N/A,,Partly Cloudy,50,2012-07-18 15:50:00
7:20 PM,80.6,55.4,42,29.95,6.2,NE,18.4,-,N/A,,Partly Cloudy,50,2012-07-18 16:20:00
7:50 PM,80.6,55.4,42,29.98,6.2,NE,15.0,-,N/A,,Partly Cloudy,50,2012-07-18 16:50:00
8:20 PM,78.8,57.2,47,29.98,-9999.0,ENE,16.1,-,N/A,,Clear,60,2012-07-18 17:20:00
8:50 PM,80.6,57.2,45,29.98,-9999.0,Variable,10.4,-,N/A,,Clear,0,2012-07-18 17:50:00
9:00 PM,80,57,34,29.98,6,ENE,10.4,,,,,60,2012-07-18 18:00:00
9:20 PM,78.8,57.2,47,29.98,-9999.0,ENE,13.8,-,N/A,,Clear,60,2012-07-18 18:20:00
9:50 PM,77.0,59.0,54,29.98,-9999.0,ENE,13.8,-,N/A,,Clear,70,2012-07-18 18:50:00
10:20 PM,77.0,57.2,50,29.98,-9999.0,ENE,12.7,-,N/A,,Clear,60,2012-07-18 19:20:00
10:50 PM,77.0,59.0,54,29.98,-9999.0,ENE,11.5,-,N/A,,Clear,70,2012-07-18 19:50:00
11:20 PM,77.0,59.0,54,30.01,-9999.0,ENE,9.2,-,N/A,,Clear,60,2012-07-18 20:20:00
11:50 PM,75.2,59.0,57,30.01,-9999.0,ENE,11.5,-,N/A,,Clear,60,2012-07-18 20:50:00